Portage Southport, Manitoba

12:16 PM CDT on August 27, 2016 (GMT -0500)
Southport

Weather History for CYPG - March, 2014

Change the Weather History Date:

Monday, March 3, 2014

  Actual Average Record
Temperature  
Mean Temperature -6 °F -  
Max Temperature 5 °F 28 °F 37 °F (2005)
Min Temperature -17 °F 14 °F -17 °F (2014)
Degree Days  
Heating Degree Days 71    
Moisture  
Dew Point -13 °F    
Average Humidity 61    
Maximum Humidity 78    
Minimum Humidity 38    
Precipitation  
Precipitation 0.00 in - - ()
Sea Level Pressure  
Sea Level Pressure 30.40 in    
Wind  
Wind Speed 4 mph ()    
Max Wind Speed 8 mph    
Max Gust Speed -    
Visibility 15.0 miles    
Events Snow    
Averages and records for this station are not official NWS values.
T = Trace of Precipitation, MM = Missing Value Source: Averaged Metar Reports

Daily Weather History Graph

Daily Weather History Graph

Search for Another Location

Airport or City:

Trip Planner

Search our weather history database for the weather conditions in past years. The results will help you decide how hot, cold, wet, or windy it might be!

Date:

Astronomy

Mar. 03, 2014 Rise Set
Actual Time 7:11 AM CST 6:18 PM CST
Civil Twilight 6:39 AM CST 6:51 PM CST
Nautical Twilight 6:02 AM CST 7:28 PM CST
Astronomical Twilight 5:24 AM CST 8:06 PM CST
Moon 8:03 AM CST (3/3) 9:45 PM CST (3/3)
Length of Visible Light 12h 11m
Length of Day
11h 06m
Waxing Crescent, 8% of the Moon is Illuminated
Mar 3
Waxing Crescent
Mar 8
First Quarter
Mar 16
Full
Mar 23
Last Quarter
Mar 30
New

Hourly Weather History & Observations

Time (CST) Temp. Windchill Dew Point Humidity Pressure Visibility Wind Dir Wind Speed Gust Speed Precip Events Conditions
12:00 AM -13 °F - -20 °F 56% 30.52 in - WSW 4.6 mph - -  
6:00 AM -17 °F - -23 °F 60% 30.47 in - WSW 4.6 mph - -  
6:00 AM -16.4 °F -34.2 °F -24.0 °F 69% 30.48 in 15.0 mi SW 8.1 mph - N/A   Scattered Clouds
7:00 AM -14.8 °F -27.2 °F -23.8 °F 64% 30.46 in 15.0 mi SSW 4.6 mph - N/A   Mostly Cloudy
8:00 AM -13.0 °F -22.7 °F -22.0 °F 64% 30.45 in 15.0 mi SW 3.5 mph - N/A   Mostly Cloudy
9:00 AM -9.4 °F -20.9 °F -18.4 °F 65% 30.44 in 15.0 mi South 4.6 mph - N/A   Mostly Cloudy
10:00 AM -5.8 °F -18.4 °F -16.6 °F 60% 30.43 in 15.0 mi SW 5.8 mph - N/A   Mostly Cloudy
11:00 AM -2.2 °F -12.5 °F -14.8 °F 55% 30.42 in 15.0 mi SSW 4.6 mph - N/A   Mostly Cloudy
12:00 PM -0 °F - -13 °F 38% 30.40 in - WSW 5.8 mph - -  
12:00 PM -0.4 °F -12.0 °F -13.0 °F 55% 30.40 in 15.0 mi SSW 5.8 mph - N/A   Mostly Cloudy
1:00 PM 1.4 °F -8.3 °F -11.2 °F 56% 30.39 in 15.0 mi SSW 4.6 mph - N/A   Mostly Cloudy
2:00 PM 3.2 °F -6.2 °F -11.2 °F 51% 30.37 in 15.0 mi SSW 4.6 mph - N/A   Overcast
3:00 PM 5.0 °F - -11.2 °F 47% 30.35 in 15.0 mi Calm Calm - N/A   Overcast
4:00 PM 5.0 °F - -9.4 °F 52% 30.35 in 15.0 mi Calm Calm - N/A   Overcast
5:00 PM 3.2 °F -9.1 °F -5.8 °F 66% 30.35 in 15.0 mi East 6.9 mph - N/A   Overcast
5:23 PM - - - N/A% - 15.0 mi East 4.6 mph - N/A   Unknown
5:40 PM - - - N/A% - 15.0 mi East 8.1 mph - N/A   Overcast
6:00 PM 2 °F - -2 °F 73% 30.34 in - East 4.6 mph - -  
6:00 PM 1.4 °F -9.9 °F -4.0 °F 78% 30.35 in 15.0 mi East 5.8 mph - N/A   Overcast
6:40 PM - - - N/A% - 15.0 mi East 3.5 mph - N/A   Unknown
7:00 PM 1.4 °F - -4.0 °F 78% 30.36 in 15.0 mi East 2.3 mph - N/A Snow Light Snow
8:00 PM 1.4 °F - -4.0 °F 78% 30.35 in 15.0 mi East 2.3 mph - N/A Snow Light Snow